Skip Page Navigation
NASA JPL Caltech
NASA Logo - Jet Propulsion Laboratory + View the NASA Portal
+ Near-Earth Object (NEO) Program
Search JPL
JPL Home Earth Solar System Stars & Galaxies Technology
JPL Solar System Dynamics
BODIES ORBITS EPHEMERIDES TOOLS PHYSICAL DATA DISCOVERY FAQ SITE MAP
JPL Small-Body Database Browser
Search: [ help ]  
575 Renate (1905 RE)
Classification: Main-belt Asteroid          SPK-ID: 2000575
Ephemeris | Orbit Diagram | Orbital Elements | Physical Parameters | Discovery Circumstances ]

[ show orbit diagram ]
Orbital Elements at Epoch 2457000.5 (2014-Dec-09.0) TDB
Reference: JPL 13 (heliocentric ecliptic J2000)
 Element Value Uncertainty (1-sigma)   Units 
e .1278817530030984 4.7199e-08  
a 2.554428961769436 1.0789e-08 AU
q 2.227764108216475 1.2081e-07 AU
i 15.01143669073893 5.9642e-06 deg
node 349.6861943197067 1.5638e-05 deg
peri 334.0740482884465 2.3852e-05 deg
M 295.5736503798011 1.9152e-05 deg
tp 2457267.370270256459
(2015-Sep-01.87027026)
7.9945e-05 JED
period 1491.211249103649
4.08
9.4472e-06
2.587e-08
d
yr
n .241414487864407 1.5294e-09 deg/d
Q 2.881093815322396 1.2168e-08 AU
  Orbit Determination Parameters
   # obs. used (total)      1418  
   data-arc span      39799 days (108.96 yr)  
   first obs. used      1905-09-19  
   last obs. used      2014-09-06  
   planetary ephem.      DE431  
   SB-pert. ephem.      SB431-BIG16  
   condition code      0  
   fit RMS      .47768  
   data source      ORB  
   producer      Otto Matic  
   solution date      2014-Oct-09 13:46:58  

Additional Information
 Earth MOID = 1.22631 AU 
 T_jup = 3.379 
[ show covariance matrix ]

Ephemeris | Orbit Diagram | Orbital Elements | Physical Parameters | Discovery Circumstances ]

Physical Parameter Table
Parameter Symbol Value Units Sigma Reference Notes
absolute magnitude H 10.7 mag n/a MPO263348  
diameter diameter 21.26 km 1.5 IRAS-A-FPA-3-RDR-IMPS-V6.0 IRAS observations used: 3
rotation period rot_per 3.676 h n/a Asteroid Lightcurve DataBase (Rev. 2014-Mar-01) Published Reference List:
[Warner, B.D. (2000) Minor Planet Bul. 27, 4-6.]
[Behrend, R. (2003) Observatoire de Geneve web site, http://obswww.unige.ch/~behrend/page_cou.html]
[Ivarsen, K.; Willis, S.; Ingleby, L.; Matthews, D.; Simet, M. (2004) Minor Planet Bul. 31, 29-33.]
[Behrend, R. (2007) Observatoire de Geneve web site, http://obswww.unige.ch/~behrend/page_cou.html]
[Warner, B.D. (2011) Minor Planet Bul. 38, 52-54.]
[Kim, M.-J.; Choi, Y.-J.; Moon, H.-K.; Byun, Y.-I.; et al. (2014) Astron. J. 146, A56.]
geometric albedo albedo 0.1706   0.027 IRAS-A-FPA-3-RDR-IMPS-V6.0 IRAS observations used: 3

575 Renate (1905 RE)          Discovered 1905-Sep-19 by Wolf, M. at Heidelberg (024)
Reference: DISCOVERY.DBLast Updated: 2003-08-29

Alternate Designations
 1905 RE = 1981 EO1 
Ephemeris | Orbit Diagram | Orbital Elements | Physical Parameters | Discovery Circumstances ]
ABOUT SSD CREDITS/AWARDS PRIVACY/COPYRIGHT GLOSSARY LINKS
FirstGov 2014-Oct-26 01:50 UT
(server date/time)  
NASA Home Page
Site Manager:   Donald K. Yeomans
Webmaster  Alan B. Chamberlin